Wind_Speed
5 4 2 3 6 7 9 12 11 11 11 14 15 16 18 20 21 22 23 22 23 25 25 26 25 25 25 25 25 25 25 26 26 27 27 27 27 27 27 27 26 25 25 23
4 3 3 5 7 8 11 13 12 11 12 14 15 15 16 18 19 21 22 23 24 25 26 27 26 25 26 26 27 26 26 26 27 27 27 28 28 28 27 27 26 25 24 23
4 3 5 7 8 9 11 13 13 12 11 13 15 16 17 19 20 21 23 22 22 24 26 27 28 28 27 27 28 28 28 28 28 29 29 29 28 27 26 26 26 25 23 23
5 5 6 7 8 9 10 11 12 12 12 13 16 18 18 20 22 23 23 22 23 25 27 28 29 30 29 28 29 29 30 30 30 29 29 28 27 27 26 25 25 25 24 23
5 7 7 7 8 9 11 11 12 12 13 14 15 18 19 22 23 23 24 25 25 26 28 29 30 30 30 30 31 31 31 31 30 29 29 28 27 26 26 26 25 24 24 23
6 6 7 7 8 10 12 12 12 12 12 13 15 18 20 21 22 22 25 25 26 27 27 29 30 31 32 32 33 32 31 30 30 29 28 27 26 25 25 24 24 23 23 23
6 7 8 9 10 11 13 13 12 11 12 14 16 18 19 20 21 22 23 24 26 27 27 28 30 31 32 32 32 31 31 30 30 29 28 27 26 25 24 23 23 23 23 21
8 8 9 10 11 12 12 13 14 15 15 16 17 19 19 20 22 22 23 25 26 28 29 30 31 31 31 31 31 31 30 30 30 29 27 26 25 25 23 22 22 21 21 21
8 8 9 11 12 12 13 14 15 16 17 17 18 19 20 21 23 24 25 26 27 29 30 30 30 30 30 31 31 30 29 30 29 28 26 25 24 22 20 19 19 19 20 20
10 10 10 11 12 13 14 15 15 16 18 18 18 20 22 22 24 25 26 27 28 29 30 30 30 29 29 30 30 30 29 29 28 27 25 23 22 20 20 18 17 17 17 19
11 11 10 12 13 14 14 15 16 17 18 20 21 22 24 24 25 26 26 28 29 30 30 30 30 29 29 30 29 28 28 27 27 26 23 21 20 19 19 18 17 17 17 17
12 13 13 13 13 14 15 16 17 18 19 20 22 24 25 25 26 27 27 29 29 30 30 30 30 29 30 30 28 27 26 26 25 24 23 20 19 18 18 17 17 16 16 15
13 13 14 15 15 15 15 16 16 18 20 21 23 25 25 26 27 28 28 29 29 29 29 29 29 29 29 29 27 27 26 25 24 23 21 19 18 18 17 16 16 15 14 14
13 14 14 16 16 16 16 16 16 17 19 21 23 24 25 25 26 27 27 28 28 27 28 29 29 28 28 27 27 27 26 25 24 22 20 19 18 17 17 15 14 14 13 13
15 15 16 16 17 17 17 17 17 17 19 21 23 24 25 25 26 26 27 27 26 27 28 28 28 28 27 27 26 26 25 24 23 22 20 19 18 17 16 15 14 14 13 13
16 16 17 16 17 17 17 18 18 19 20 21 23 23 24 25 25 26 27 27 27 27 29 29 28 27 27 26 25 25 24 23 22 21 20 18 17 17 16 15 13 13 14 13
17 17 17 16 16 18 19 19 19 20 21 22 24 24 25 25 26 26 27 27 28 28 28 27 27 27 27 26 25 25 24 23 22 21 19 18 17 16 15 15 13 13 12 12
17 17 18 18 18 19 20 20 21 22 23 23 24 24 24 24 25 26 27 27 28 28 27 28 28 28 27 27 26 25 24 22 21 20 19 18 16 14 14 14 14 13 13 12
16 17 18 20 20 20 19 20 22 23 24 24 23 23 23 24 24 25 26 27 28 28 28 28 28 28 28 27 25 23 22 21 20 18 17 17 15 15 15 15 14 13 12 11
16 17 18 19 20 20 21 21 22 23 23 23 23 23 23 24 25 26 27 27 28 28 28 28 28 27 26 25 23 22 21 20 18 17 16 15 15 15 15 15 14 13 13 13
16 17 18 19 20 21 22 22 22 23 24 23 23 24 24 25 26 27 27 27 28 28 28 27 26 24 24 22 21 21 20 19 17 16 15 15 16 16 16 15 14 14 14 14
18 19 20 21 21 22 23 23 24 24 24 24 25 25 26 26 27 27 27 27 27 27 27 27 26 24 22 21 20 20 18 17 16 16 16 17 17 17 16 15 15 15 15 15
19 20 21 21 22 23 24 24 25 25 25 25 26 26 26 27 27 26 26 26 26 26 26 26 25 23 21 21 20 18 17 17 17 17 17 17 17 16 15 15 14 15 15 15
21 21 22 22 23 24 24 25 25 25 26 26 27 27 27 27 26 26 26 27 26 26 25 25 23 21 20 19 18 18 18 18 17 17 17 17 16 15 14 14 14 15 15 15
22 22 22 23 24 25 25 26 26 26 26 27 27 27 27 26 26 26 26 26 26 25 24 23 22 20 19 19 19 19 19 18 17 16 16 16 15 15 15 15 15 15 16 15
24 24 24 24 24 25 25 26 26 26 26 27 27 27 27 26 26 25 25 25 25 24 24 22 21 20 19 19 19 19 19 18 17 16 16 15 15 15 15 14 14 14 14 13
Wind_Direction
234 242 264 286 278 287 290 292 295 296 291 285 282 285 290 299 303 308 310 311 316 319 321 320 320 320 321 320 316 312 311 311 309 307 304 302 301 300 298 296 296 293 291 287
240 255 281 284 282 287 289 292 294 288 282 279 282 286 291 295 297 302 306 312 317 320 318 319 319 320 320 319 316 314 311 309 307 306 304 302 301 299 298 296 295 292 289 286
237 261 277 278 281 287 292 291 292 294 282 281 284 288 292 297 295 298 305 311 316 317 318 318 318 317 315 315 314 313 312 310 308 306 305 304 302 299 295 292 292 290 288 286
241 243 257 272 283 290 293 292 290 291 289 285 288 293 297 299 302 304 310 313 317 318 319 319 317 315 315 315 315 313 312 311 310 308 307 304 302 298 295 291 290 289 286 281
246 254 260 276 292 296 299 299 294 289 288 284 288 293 300 302 308 309 311 312 316 317 319 318 318 317 317 316 315 314 313 312 312 309 308 307 304 300 295 290 287 285 282 280
263 270 283 293 300 301 300 299 296 289 286 285 291 294 297 302 307 308 310 313 315 316 318 318 317 317 317 317 317 315 313 313 312 310 308 306 305 302 297 291 286 283 283 281
269 277 289 294 295 297 300 301 294 286 286 291 296 299 302 307 307 309 311 314 315 317 318 317 317 318 317 317 316 315 314 314 314 312 310 306 304 302 299 293 287 284 283 283
274 282 290 293 293 297 301 301 301 301 299 301 303 304 308 313 314 315 315 315 315 319 319 318 319 319 319 319 318 318 318 316 315 313 310 307 304 302 298 295 291 285 283 284
278 284 286 291 293 292 292 295 300 300 299 299 303 305 309 315 317 317 316 317 320 321 320 321 321 320 321 321 320 320 320 317 316 315 311 308 306 303 299 297 293 288 287 285
285 285 285 289 287 285 289 295 301 302 303 302 303 306 310 314 316 317 319 321 322 322 322 321 322 322 321 321 321 320 320 318 318 316 314 311 309 304 299 298 295 293 289 284
293 292 290 287 286 288 290 293 296 299 301 303 305 307 312 313 314 317 319 320 321 322 322 324 324 322 321 321 321 320 319 317 317 316 315 314 311 307 301 298 295 291 287 284
293 293 293 293 293 294 292 294 295 298 302 301 302 306 312 313 313 315 316 317 318 320 322 323 322 321 320 320 321 321 319 319 319 318 317 316 315 312 308 303 298 292 288 286
290 292 295 296 296 297 296 295 296 297 299 302 304 306 311 312 313 313 314 315 315 317 319 321 322 321 320 320 320 320 320 321 320 319 318 319 318 315 312 306 303 297 294 288
290 290 292 295 297 297 296 295 298 300 299 302 304 307 310 311 312 311 312 314 315 316 317 319 320 321 321 322 323 322 322 321 320 320 319 318 319 315 314 308 306 299 296 293
287 289 292 294 295 297 299 297 298 300 300 302 306 309 312 312 312 312 314 315 316 317 318 320 320 321 322 322 324 324 323 322 321 320 318 316 316 316 315 311 307 302 297 294
288 290 292 293 294 298 298 300 302 303 303 305 307 310 313 314 314 315 316 317 318 319 319 320 320 320 321 321 323 323 323 323 322 321 318 316 316 316 316 314 308 305 300 296
288 291 294 295 296 300 300 303 303 303 306 309 310 312 314 316 316 315 316 317 318 319 319 320 321 320 320 320 322 323 324 324 323 322 319 319 318 317 317 316 315 308 303 301
286 288 292 295 298 301 305 305 306 306 307 309 311 314 316 317 317 317 317 318 320 320 320 320 320 319 319 320 321 321 322 321 321 322 322 321 321 321 320 318 313 309 310 308
288 289 292 296 299 304 307 309 309 309 309 309 311 313 314 316 315 316 317 318 319 321 321 322 321 320 319 318 319 319 319 318 318 319 320 319 318 316 317 317 313 309 308 309
293 293 295 298 301 305 308 309 309 308 309 310 311 312 313 315 314 315 316 316 317 319 319 321 321 320 319 318 318 318 321 320 319 319 320 318 319 318 317 316 313 309 308 311
293 295 296 300 302 304 308 309 310 309 310 310 311 311 312 313 315 316 317 318 319 318 318 319 319 320 320 318 319 321 322 321 319 318 318 317 317 319 320 319 315 311 308 310
294 296 297 300 302 304 308 310 311 310 308 309 311 312 312 313 314 315 317 318 318 317 316 316 314 315 317 316 316 318 319 320 319 318 318 317 317 317 318 317 315 313 311 311
293 296 298 300 301 302 305 309 310 310 309 308 310 310 311 311 312 313 315 317 318 317 317 317 316 315 317 318 317 316 316 316 314 314 317 317 317 318 318 316 314 311 310 310
289 292 294 297 299 300 303 306 308 308 308 308 308 309 310 310 311 312 313 314 316 317 316 317 316 314 317 318 317 315 313 313 314 315 316 318 320 319 318 315 312 310 309 308
287 289 290 292 295 298 301 303 305 305 306 306 308 310 311 312 313 313 314 314 316 316 316 316 314 312 312 313 314 315 314 313 315 316 317 317 317 317 316 313 310 309 309 310
283 286 288 290 293 295 297 300 301 302 302 303 305 307 309 311 312 313 314 316 317 317 315 313 312 309 308 310 313 316 316 314 314 315 315 315 316 315 314 312 310 310 311 311
Height
5884 5885 5884 5884 5885 5884 5883 5882 5881 5880 5879 5877 5875 5874 5872 5870 5868 5866 5863 5861 5858 5855 5851 5848 5843 5840 5837 5833 5830 5827 5824 5820 5816 5812 5809 5806 5804 5801 5799 5796 5793 5791 5789 5787
5883 5883 5883 5882 5882 5881 5880 5880 5879 5878 5876 5874 5872 5871 5870 5868 5865 5862 5859 5857 5853 5851 5847 5843 5838 5835 5831 5828 5824 5821 5818 5814 5810 5806 5802 5799 5796 5794 5791 5788 5786 5785 5783 5781
5881 5881 5880 5880 5879 5878 5878 5877 5876 5875 5873 5872 5869 5868 5866 5864 5861 5859 5856 5853 5850 5846 5842 5839 5834 5830 5826 5822 5818 5815 5811 5808 5804 5800 5796 5792 5789 5786 5784 5782 5780 5779 5777 5776
5878 5878 5878 5877 5876 5875 5875 5874 5873 5872 5870 5869 5867 5864 5862 5860 5858 5855 5852 5849 5846 5842 5838 5834 5829 5825 5820 5816 5812 5808 5804 5801 5796 5792 5788 5785 5782 5779 5777 5775 5773 5772 5770 5769
5877 5876 5875 5874 5874 5873 5871 5871 5870 5869 5867 5866 5864 5861 5860 5856 5854 5851 5848 5845 5842 5838 5834 5829 5824 5819 5814 5810 5805 5801 5797 5793 5788 5784 5781 5777 5774 5771 5769 5767 5765 5764 5763 5762
5875 5874 5874 5872 5871 5870 5869 5868 5867 5866 5865 5863 5861 5858 5856 5853 5850 5847 5844 5840 5837 5833 5830 5824 5819 5814 5809 5804 5798 5793 5789 5785 5780 5776 5773 5769 5767 5764 5761 5759 5757 5756 5755 5755
5874 5873 5871 5870 5868 5868 5867 5866 5865 5863 5861 5860 5857 5855 5853 5850 5846 5844 5840 5837 5833 5829 5825 5820 5814 5808 5803 5797 5792 5786 5782 5777 5773 5768 5764 5761 5759 5757 5754 5752 5750 5749 5748 5747
5871 5870 5869 5867 5866 5865 5864 5863 5862 5860 5858 5856 5854 5851 5849 5846 5842 5839 5836 5832 5828 5824 5819 5814 5808 5802 5797 5791 5785 5780 5775 5770 5766 5761 5757 5754 5752 5750 5747 5745 5743 5742 5741 5741
5868 5868 5867 5865 5863 5863 5861 5859 5858 5856 5854 5852 5850 5847 5844 5842 5839 5835 5831 5826 5822 5818 5813 5808 5802 5797 5791 5785 5780 5774 5769 5764 5759 5755 5751 5748 5745 5743 5740 5738 5737 5735 5735 5734
5865 5865 5864 5862 5861 5859 5858 5856 5855 5853 5850 5848 5846 5844 5841 5838 5835 5831 5826 5821 5817 5812 5808 5803 5797 5792 5786 5781 5775 5769 5764 5759 5754 5750 5745 5742 5739 5736 5734 5732 5731 5729 5728 5728
5862 5862 5861 5860 5858 5856 5855 5853 5851 5849 5847 5844 5841 5841 5837 5833 5829 5826 5821 5817 5812 5808 5803 5797 5792 5787 5782 5776 5771 5765 5760 5755 5750 5745 5740 5736 5733 5731 5729 5727 5725 5724 5723 5722
5859 5858 5857 5856 5855 5853 5852 5850 5847 5845 5843 5840 5837 5837 5831 5828 5824 5821 5817 5812 5808 5803 5798 5792 5787 5782 5777 5771 5766 5760 5755 5750 5745 5740 5736 5732 5729 5726 5724 5722 5719 5718 5717 5717
5856 5855 5854 5852 5853 5851 5848 5846 5843 5841 5839 5836 5833 5833 5826 5823 5819 5815 5811 5807 5803 5798 5793 5788 5783 5777 5771 5766 5761 5756 5750 5746 5741 5736 5732 5729 5726 5723 5720 5717 5715 5713 5713 5712
5853 5852 5851 5850 5847 5845 5843 5842 5839 5837 5835 5832 5829 5825 5822 5818 5814 5810 5807 5802 5797 5793 5788 5783 5777 5772 5767 5761 5756 5751 5746 5741 5737 5733 5729 5725 5722 5719 5716 5713 5712 5710 5709 5709
5849 5848 5846 5844 5842 5840 5838 5837 5835 5833 5830 5827 5824 5820 5817 5813 5809 5805 5801 5797 5792 5788 5783 5777 5772 5767 5762 5757 5752 5747 5742 5737 5733 5729 5725 5722 5719 5716 5713 5711 5709 5707 5706 5705
5845 5844 5842 5840 5838 5836 5835 5833 5830 5828 5825 5822 5819 5816 5812 5807 5803 5799 5795 5791 5787 5782 5777 5772 5767 5762 5757 5752 5748 5743 5738 5733 5729 5725 5721 5718 5715 5712 5710 5707 5705 5704 5702 5701
5840 5839 5838 5837 5834 5832 5830 5828 5826 5823 5820 5817 5813 5811 5806 5802 5798 5794 5790 5785 5781 5776 5772 5766 5761 5757 5752 5748 5743 5738 5733 5729 5724 5721 5717 5714 5711 5708 5706 5704 5702 5700 5698 5697
5836 5835 5833 5832 5831 5828 5828 5823 5820 5817 5814 5811 5808 5804 5801 5797 5793 5789 5784 5780 5776 5771 5766 5761 5757 5752 5747 5743 5738 5733 5729 5725 5721 5717 5714 5710 5708 5705 5703 5701 5699 5697 5695 5694
5832 5831 5829 5827 5825 5823 5821 5818 5815 5811 5808 5805 5802 5800 5796 5793 5789 5785 5780 5776 5771 5766 5761 5756 5751 5746 5742 5737 5733 5729 5725 5721 5718 5714 5711 5708 5705 5703 5700 5698 5696 5694 5692 5691
5827 5826 5825 5822 5820 5818 5817 5814 5810 5807 5803 5800 5797 5794 5791 5787 5784 5781 5775 5771 5766 5761 5756 5751 5746 5741 5737 5733 5729 5725 5721 5718 5714 5711 5708 5706 5703 5700 5698 5695 5693 5691 5689 5688
5823 5821 5819 5817 5815 5812 5810 5807 5805 5802 5799 5795 5792 5788 5785 5782 5779 5774 5769 5765 5761 5756 5751 5746 5742 5737 5732 5728 5724 5721 5718 5715 5712 5709 5706 5703 5700 5697 5694 5692 5690 5688 5686 5685
5817 5816 5814 5812 5809 5809 5804 5801 5799 5796 5792 5789 5785 5782 5780 5776 5773 5768 5764 5760 5755 5751 5746 5741 5737 5733 5729 5725 5721 5718 5715 5712 5709 5706 5703 5700 5697 5694 5691 5688 5686 5684 5683 5681
5812 5811 5808 5807 5806 5802 5798 5796 5793 5790 5786 5783 5780 5777 5774 5770 5767 5763 5759 5755 5750 5745 5741 5736 5732 5728 5725 5721 5717 5714 5711 5708 5705 5702 5699 5696 5692 5689 5687 5685 5683 5681 5679 5677
5807 5805 5803 5800 5797 5795 5792 5790 5787 5784 5781 5777 5774 5771 5767 5764 5760 5757 5753 5749 5744 5740 5736 5732 5728 5724 5721 5717 5714 5711 5708 5705 5702 5699 5695 5692 5689 5686 5684 5682 5680 5678 5675 5673
5800 5799 5796 5794 5792 5789 5787 5784 5781 5778 5775 5771 5768 5765 5761 5758 5754 5751 5747 5743 5739 5735 5731 5727 5723 5720 5717 5714 5710 5707 5704 5701 5698 5695 5692 5689 5686 5683 5680 5678 5676 5673 5671 5669
5793 5792 5790 5788 5786 5784 5781 5778 5775 5772 5768 5765 5762 5759 5756 5753 5749 5745 5741 5738 5734 5730 5726 5722 5719 5715 5713 5709 5706 5703 5699 5696 5694 5691 5688 5685 5682 5680 5677 5674 5672 5669 5667 5664